Time,TemperatureF,DewpointF,PressureIn,WindDirection,WindDirectionDegrees,WindSpeedMPH,WindSpeedGustMPH,Humidity,HourlyPrecipIn,Conditions,Clouds,dailyrainin,SoftwareType,DateUTC
2013-05-09 00:01:00,52.0,52.0,30.07,South,174,0.0,0.0,100,0.00,,,0.00,Weather View 32 v70,2013-05-09 04:01:00,
2013-05-09 00:06:00,52.1,52.1,30.07,South,174,0.0,0.0,100,0.00,,,0.00,Weather View 32 v70,2013-05-09 04:06:00,
2013-05-09 00:11:00,52.1,52.1,30.07,South,174,0.0,0.0,100,0.00,,,0.00,Weather View 32 v70,2013-05-09 04:11:00,
2013-05-09 00:16:00,52.2,52.2,30.07,South,175,0.0,0.0,100,0.00,,,0.00,Weather View 32 v70,2013-05-09 04:16:00,
2013-05-09 00:21:00,52.3,52.3,30.06,South,175,0.0,0.0,100,0.00,,,0.00,Weather View 32 v70,2013-05-09 04:21:00,
2013-05-09 00:26:00,52.4,52.4,30.06,South,175,0.0,0.0,100,0.00,,,0.00,Weather View 32 v70,2013-05-09 04:26:00,
2013-05-09 00:31:00,52.5,52.5,30.06,SE,140,0.0,0.0,100,0.00,,,0.00,Weather View 32 v70,2013-05-09 04:31:00,
2013-05-09 00:36:00,52.4,52.4,30.06,SE,140,0.0,0.0,100,0.00,,,0.00,Weather View 32 v70,2013-05-09 04:36:00,
2013-05-09 00:41:00,52.3,52.3,30.06,SE,140,0.0,0.0,100,0.00,,,0.00,Weather View 32 v70,2013-05-09 04:41:00,
2013-05-09 00:46:00,52.1,52.1,30.06,SE,140,0.0,0.0,100,0.00,,,0.00,Weather View 32 v70,2013-05-09 04:46:00,
2013-05-09 00:51:00,52.0,52.0,30.07,SSE,157,0.0,0.0,100,0.00,,,0.00,Weather View 32 v70,2013-05-09 04:51:00,
2013-05-09 00:56:00,51.9,51.9,30.07,South,170,0.0,0.0,100,0.00,,,0.00,Weather View 32 v70,2013-05-09 04:56:00,
2013-05-09 01:01:00,51.9,51.9,30.06,SSE,167,0.0,0.0,100,0.00,,,0.00,Weather View 32 v70,2013-05-09 05:01:00,
2013-05-09 01:06:00,51.9,51.9,30.06,South,170,0.0,0.0,100,0.00,,,0.00,Weather View 32 v70,2013-05-09 05:06:00,
2013-05-09 01:11:00,51.8,51.8,30.06,South,170,0.0,0.0,100,0.00,,,0.00,Weather View 32 v70,2013-05-09 05:11:00,
2013-05-09 01:16:00,51.8,51.8,30.06,South,170,0.0,0.0,100,0.00,,,0.00,Weather View 32 v70,2013-05-09 05:16:00,
2013-05-09 01:21:00,51.7,51.7,30.05,South,169,0.0,0.0,100,0.00,,,0.00,Weather View 32 v70,2013-05-09 05:21:00,
2013-05-09 01:26:00,51.6,51.6,30.05,South,169,0.0,0.0,100,0.00,,,0.00,Weather View 32 v70,2013-05-09 05:26:00,
2013-05-09 01:31:00,51.4,51.4,30.05,SSE,167,0.0,0.0,100,0.00,,,0.00,Weather View 32 v70,2013-05-09 05:31:00,
2013-05-09 01:36:00,51.4,51.4,30.05,SSE,166,0.0,0.0,100,0.00,,,0.00,Weather View 32 v70,2013-05-09 05:36:00,
2013-05-09 01:41:00,51.3,51.3,30.05,SSE,168,0.0,0.0,100,0.01,,,0.01,Weather View 32 v70,2013-05-09 05:41:00,
2013-05-09 01:46:00,51.3,51.3,30.05,South,189,0.0,0.0,100,0.01,,,0.01,Weather View 32 v70,2013-05-09 05:46:00,
2013-05-09 01:51:00,51.2,51.2,30.05,South,189,0.0,0.0,100,0.01,,,0.01,Weather View 32 v70,2013-05-09 05:51:00,
2013-05-09 01:56:00,51.1,51.1,30.05,South,186,0.0,0.0,100,0.01,,,0.01,Weather View 32 v70,2013-05-09 05:56:00,
2013-05-09 02:01:00,51.0,51.0,30.05,SSW,197,0.0,0.0,100,0.01,,,0.01,Weather View 32 v70,2013-05-09 06:01:00,
2013-05-09 02:06:00,51.0,51.0,30.05,SSW,195,0.0,0.0,100,0.01,,,0.01,Weather View 32 v70,2013-05-09 06:06:00,
2013-05-09 02:11:00,50.9,50.9,30.05,SSW,195,0.0,0.0,100,0.01,,,0.01,Weather View 32 v70,2013-05-09 06:11:00,
2013-05-09 02:16:00,50.8,50.8,30.05,SSW,192,0.0,0.0,100,0.01,,,0.01,Weather View 32 v70,2013-05-09 06:16:00,
2013-05-09 02:21:00,50.6,50.6,30.04,South,171,0.0,0.0,100,0.01,,,0.01,Weather View 32 v70,2013-05-09 06:21:00,
2013-05-09 02:26:00,50.4,50.4,30.05,South,171,0.0,0.0,100,0.01,,,0.01,Weather View 32 v70,2013-05-09 06:26:00,
2013-05-09 02:31:00,50.3,50.3,30.05,South,171,0.0,0.0,100,0.01,,,0.01,Weather View 32 v70,2013-05-09 06:31:00,
2013-05-09 02:36:00,50.2,50.2,30.04,South,179,0.0,0.0,100,0.01,,,0.01,Weather View 32 v70,2013-05-09 06:36:00,
2013-05-09 02:41:00,50.2,50.2,30.04,South,181,0.0,0.0,100,0.00,,,0.01,Weather View 32 v70,2013-05-09 06:41:00,
2013-05-09 02:46:00,50.1,50.1,30.04,South,181,0.0,0.0,100,0.00,,,0.01,Weather View 32 v70,2013-05-09 06:46:00,
2013-05-09 02:51:00,49.9,49.9,30.04,South,180,0.0,0.0,100,0.00,,,0.01,Weather View 32 v70,2013-05-09 06:51:00,
2013-05-09 02:56:00,49.8,49.8,30.04,South,181,0.0,0.0,100,0.00,,,0.01,Weather View 32 v70,2013-05-09 06:56:00,
2013-05-09 03:01:00,49.8,49.8,30.04,South,181,0.0,0.0,100,0.00,,,0.01,Weather View 32 v70,2013-05-09 07:01:00,
2013-05-09 03:06:00,49.8,49.8,30.04,South,181,0.0,0.0,100,0.00,,,0.01,Weather View 32 v70,2013-05-09 07:06:00,
2013-05-09 03:11:00,49.7,49.7,30.03,South,181,0.0,0.0,100,0.00,,,0.01,Weather View 32 v70,2013-05-09 07:11:00,
2013-05-09 03:16:00,49.5,49.5,30.03,South,181,0.0,0.0,100,0.00,,,0.01,Weather View 32 v70,2013-05-09 07:16:00,
2013-05-09 03:22:00,49.4,49.4,30.04,South,181,0.0,0.0,100,0.00,,,0.01,Weather View 32 v70,2013-05-09 07:22:00,
2013-05-09 03:27:00,49.3,49.3,30.04,South,179,0.0,0.0,100,0.00,,,0.01,Weather View 32 v70,2013-05-09 07:27:00,
2013-05-09 03:32:00,49.3,49.3,30.04,South,171,0.0,0.0,100,0.00,,,0.01,Weather View 32 v70,2013-05-09 07:32:00,
2013-05-09 03:37:00,49.3,49.3,30.03,South,171,0.0,0.0,100,0.00,,,0.01,Weather View 32 v70,2013-05-09 07:37:00,
2013-05-09 03:42:00,49.3,49.3,30.03,South,171,0.0,0.0,100,0.00,,,0.01,Weather View 32 v70,2013-05-09 07:42:00,
2013-05-09 03:47:00,49.2,49.2,30.03,South,171,0.0,0.0,100,0.00,,,0.01,Weather View 32 v70,2013-05-09 07:47:00,
2013-05-09 03:52:00,49.0,49.0,30.03,South,171,0.0,0.0,100,0.00,,,0.01,Weather View 32 v70,2013-05-09 07:52:00,
2013-05-09 03:57:00,48.9,48.9,30.03,South,171,0.0,0.0,100,0.00,,,0.01,Weather View 32 v70,2013-05-09 07:57:00,
2013-05-09 04:02:00,48.7,48.7,30.03,South,171,0.0,0.0,100,0.00,,,0.01,Weather View 32 v70,2013-05-09 08:02:00,
2013-05-09 04:07:00,48.5,48.5,30.03,South,171,0.0,0.0,100,0.00,,,0.01,Weather View 32 v70,2013-05-09 08:07:00,
2013-05-09 04:12:00,48.5,48.5,30.04,South,171,0.0,0.0,100,0.00,,,0.01,Weather View 32 v70,2013-05-09 08:12:00,
2013-05-09 04:17:00,48.7,48.7,30.04,South,171,0.0,0.0,100,-0.01,,,0.01,Weather View 32 v70,2013-05-09 08:17:00,
2013-05-09 04:22:00,49.0,49.0,30.04,South,171,0.0,0.0,100,-0.01,,,0.01,Weather View 32 v70,2013-05-09 08:22:00,
2013-05-09 04:27:00,49.0,49.0,30.04,South,171,0.0,0.0,100,0.00,,,0.01,Weather View 32 v70,2013-05-09 08:27:00,
2013-05-09 04:32:00,48.9,48.9,30.04,South,171,0.0,0.0,100,0.00,,,0.01,Weather View 32 v70,2013-05-09 08:32:00,
2013-05-09 04:37:00,48.7,48.7,30.04,South,171,0.0,0.0,100,0.00,,,0.01,Weather View 32 v70,2013-05-09 08:37:00,
2013-05-09 04:42:00,48.5,48.5,30.05,South,171,0.0,0.0,100,0.00,,,0.01,Weather View 32 v70,2013-05-09 08:42:00,
2013-05-09 04:47:00,48.4,48.4,30.05,South,171,0.0,0.0,100,0.00,,,0.01,Weather View 32 v70,2013-05-09 08:47:00,
2013-05-09 04:52:00,48.4,48.4,30.05,South,170,0.0,0.0,100,0.00,,,0.01,Weather View 32 v70,2013-05-09 08:52:00,
2013-05-09 04:57:00,48.3,48.3,30.05,South,171,0.0,0.0,100,0.00,,,0.01,Weather View 32 v70,2013-05-09 08:57:00,
2013-05-09 05:02:00,48.2,48.2,30.05,South,171,0.0,0.0,100,0.00,,,0.01,Weather View 32 v70,2013-05-09 09:02:00,
2013-05-09 05:07:00,48.1,48.1,30.05,SE,128,0.0,0.0,100,0.00,,,0.01,Weather View 32 v70,2013-05-09 09:07:00,
2013-05-09 05:12:00,48.0,48.0,30.05,SE,128,0.0,0.0,100,0.00,,,0.01,Weather View 32 v70,2013-05-09 09:12:00,
2013-05-09 05:17:00,48.0,48.0,30.05,SE,128,0.0,0.0,100,0.00,,,0.01,Weather View 32 v70,2013-05-09 09:17:00,
2013-05-09 05:22:00,48.0,48.0,30.06,SE,128,0.0,0.0,100,0.00,,,0.01,Weather View 32 v70,2013-05-09 09:22:00,
2013-05-09 05:27:00,48.1,48.1,30.06,SE,128,0.0,0.0,100,0.00,,,0.01,Weather View 32 v70,2013-05-09 09:27:00,
2013-05-09 05:32:00,48.1,48.1,30.06,SE,128,0.0,0.0,100,0.00,,,0.01,Weather View 32 v70,2013-05-09 09:32:00,
2013-05-09 05:37:00,48.0,48.0,30.06,SE,128,0.0,0.0,100,0.00,,,0.01,Weather View 32 v70,2013-05-09 09:37:00,
2013-05-09 05:42:00,47.8,47.8,30.06,SE,126,0.0,0.0,100,0.00,,,0.01,Weather View 32 v70,2013-05-09 09:42:00,
2013-05-09 05:47:00,47.7,47.7,30.06,SE,126,0.0,0.0,100,0.00,,,0.01,Weather View 32 v70,2013-05-09 09:47:00,
2013-05-09 05:52:00,47.7,47.7,30.06,SE,127,0.0,0.0,100,0.00,,,0.01,Weather View 32 v70,2013-05-09 09:52:00,
2013-05-09 05:57:00,47.7,47.7,30.06,SE,127,0.0,0.0,100,0.00,,,0.01,Weather View 32 v70,2013-05-09 09:57:00,
2013-05-09 06:02:00,47.7,47.7,30.06,SE,127,0.0,0.0,100,0.00,,,0.01,Weather View 32 v70,2013-05-09 10:02:00,
2013-05-09 06:07:00,47.8,47.8,30.06,SE,127,0.0,0.0,100,0.00,,,0.01,Weather View 32 v70,2013-05-09 10:07:00,
2013-05-09 06:12:00,47.8,47.8,30.06,SE,127,0.0,0.0,100,0.00,,,0.01,Weather View 32 v70,2013-05-09 10:12:00,
2013-05-09 06:17:00,47.8,47.8,30.06,SE,127,0.0,0.0,100,0.00,,,0.01,Weather View 32 v70,2013-05-09 10:17:00,
2013-05-09 06:22:00,47.8,47.8,30.07,ENE,77,0.0,0.0,100,0.00,,,0.01,Weather View 32 v70,2013-05-09 10:22:00,
2013-05-09 06:27:00,47.7,47.7,30.07,ENE,78,0.0,0.0,100,0.00,,,0.01,Weather View 32 v70,2013-05-09 10:27:00,
2013-05-09 06:32:00,47.5,47.5,30.07,SSE,157,0.0,0.0,100,0.00,,,0.01,Weather View 32 v70,2013-05-09 10:32:00,
2013-05-09 06:37:00,47.4,47.4,30.07,ESE,107,0.0,0.0,100,0.00,,,0.01,Weather View 32 v70,2013-05-09 10:37:00,
2013-05-09 06:42:00,47.4,47.4,30.07,ESE,123,0.0,0.0,100,0.00,,,0.01,Weather View 32 v70,2013-05-09 10:42:00,
2013-05-09 06:47:00,47.3,47.3,30.07,ESE,123,0.0,0.0,100,0.00,,,0.01,Weather View 32 v70,2013-05-09 10:47:00,
2013-05-09 06:52:00,47.3,47.3,30.07,SE,125,0.0,0.0,100,0.00,,,0.01,Weather View 32 v70,2013-05-09 10:52:00,
2013-05-09 06:57:00,47.2,47.2,30.08,SE,125,0.0,0.0,100,0.00,,,0.01,Weather View 32 v70,2013-05-09 10:57:00,
2013-05-09 07:02:00,47.1,47.1,30.08,SE,125,0.0,0.0,100,0.00,,,0.01,Weather View 32 v70,2013-05-09 11:02:00,
2013-05-09 07:07:00,47.1,47.1,30.08,ENE,71,0.0,0.0,100,0.00,,,0.01,Weather View 32 v70,2013-05-09 11:07:00,
2013-05-09 07:12:00,46.8,46.8,30.09,NNE,17,0.0,0.0,100,0.00,,,0.01,Weather View 32 v70,2013-05-09 11:12:00,
2013-05-09 07:17:00,46.8,46.8,30.09,NNE,17,0.0,0.0,100,0.00,,,0.01,Weather View 32 v70,2013-05-09 11:17:00,
2013-05-09 07:22:00,46.9,46.9,30.09,NNE,18,0.0,0.0,100,0.00,,,0.01,Weather View 32 v70,2013-05-09 11:22:00,
2013-05-09 07:27:00,47.0,47.0,30.09,NNE,18,0.0,0.0,100,0.00,,,0.01,Weather View 32 v70,2013-05-09 11:27:00,
2013-05-09 07:32:00,47.3,47.3,30.09,NNE,18,0.0,0.0,100,0.00,,,0.01,Weather View 32 v70,2013-05-09 11:32:00,
2013-05-09 07:37:00,47.4,47.4,30.09,NNE,18,0.0,0.0,100,0.00,,,0.01,Weather View 32 v70,2013-05-09 11:37:00,
2013-05-09 07:42:00,47.5,47.5,30.09,NNE,18,0.0,0.0,100,0.00,,,0.01,Weather View 32 v70,2013-05-09 11:42:00,
2013-05-09 07:47:00,47.6,47.6,30.09,NNE,18,0.0,0.0,100,0.00,,,0.01,Weather View 32 v70,2013-05-09 11:47:00,
2013-05-09 07:52:00,47.7,47.7,30.09,NNE,22,0.0,0.0,100,0.00,,,0.01,Weather View 32 v70,2013-05-09 11:52:00,
2013-05-09 07:57:00,47.8,47.8,30.10,NE,53,0.0,0.0,100,0.00,,,0.01,Weather View 32 v70,2013-05-09 11:57:00,
2013-05-09 08:02:00,47.9,47.9,30.10,North,11,0.0,0.0,100,0.00,,,0.01,Weather View 32 v70,2013-05-09 12:02:00,
2013-05-09 08:07:00,48.0,48.0,30.10,NNE,13,0.0,0.0,100,0.00,,,0.01,Weather View 32 v70,2013-05-09 12:07:00,
2013-05-09 08:12:00,48.2,48.2,30.10,NNE,13,0.0,0.0,100,0.00,,,0.01,Weather View 32 v70,2013-05-09 12:12:00,
2013-05-09 08:17:00,48.3,48.3,30.10,NNE,18,0.0,0.0,100,0.00,,,0.01,Weather View 32 v70,2013-05-09 12:17:00,
2013-05-09 08:22:00,48.5,48.5,30.10,NNE,17,0.0,0.0,100,0.00,,,0.01,Weather View 32 v70,2013-05-09 12:22:00,
2013-05-09 08:27:00,48.7,48.7,30.10,NE,37,0.0,0.0,100,0.00,,,0.01,Weather View 32 v70,2013-05-09 12:27:00,
2013-05-09 08:32:00,48.7,48.7,30.10,NE,53,0.0,0.0,100,0.00,,,0.01,Weather View 32 v70,2013-05-09 12:32:00,
2013-05-09 08:37:00,48.9,48.9,30.11,NE,49,0.0,0.0,100,0.00,,,0.01,Weather View 32 v70,2013-05-09 12:37:00,
2013-05-09 08:42:00,49.1,49.1,30.11,ENE,65,0.0,0.0,100,0.00,,,0.01,Weather View 32 v70,2013-05-09 12:42:00,
2013-05-09 08:47:00,49.3,49.3,30.11,ENE,64,0.0,0.0,100,0.00,,,0.01,Weather View 32 v70,2013-05-09 12:47:00,
2013-05-09 08:52:00,49.6,49.6,30.10,NE,34,0.0,0.0,100,0.00,,,0.01,Weather View 32 v70,2013-05-09 12:52:00,
2013-05-09 08:57:00,49.8,49.8,30.10,NE,54,0.0,0.0,100,0.00,,,0.01,Weather View 32 v70,2013-05-09 12:57:00,
2013-05-09 09:02:00,50.0,50.0,30.10,SE,129,0.0,0.0,100,0.00,,,0.01,Weather View 32 v70,2013-05-09 13:02:00,
2013-05-09 09:07:00,50.2,50.2,30.10,West,272,0.0,0.0,100,0.00,,,0.01,Weather View 32 v70,2013-05-09 13:07:00,
2013-05-09 09:12:00,50.4,50.4,30.10,West,273,0.0,0.0,100,0.00,,,0.01,Weather View 32 v70,2013-05-09 13:12:00,
2013-05-09 09:17:00,50.6,50.6,30.11,North,355,0.0,0.0,100,0.00,,,0.01,Weather View 32 v70,2013-05-09 13:17:00,
2013-05-09 09:22:00,50.8,50.8,30.11,NNE,13,0.0,0.0,100,0.00,,,0.01,Weather View 32 v70,2013-05-09 13:22:00,
2013-05-09 09:27:00,51.1,51.1,30.11,NNW,337,0.0,0.0,100,0.00,,,0.01,Weather View 32 v70,2013-05-09 13:27:00,
2013-05-09 09:32:00,51.3,51.3,30.11,North,351,0.0,0.0,100,0.00,,,0.01,Weather View 32 v70,2013-05-09 13:32:00,
2013-05-09 09:37:00,51.5,51.5,30.11,ENE,65,0.0,0.0,100,0.00,,,0.01,Weather View 32 v70,2013-05-09 13:37:00,
2013-05-09 09:42:00,51.7,51.7,30.11,NNE,26,0.0,0.0,100,0.00,,,0.01,Weather View 32 v70,2013-05-09 13:42:00,
2013-05-09 09:47:00,51.9,51.9,30.11,North,351,0.0,0.0,100,0.00,,,0.01,Weather View 32 v70,2013-05-09 13:47:00,
2013-05-09 09:52:00,52.2,52.2,30.11,NE,54,0.0,0.0,100,0.00,,,0.01,Weather View 32 v70,2013-05-09 13:52:00,
2013-05-09 09:57:00,52.5,52.5,30.11,North,354,0.0,0.0,100,0.00,,,0.01,Weather View 32 v70,2013-05-09 13:57:00,
2013-05-09 10:02:00,52.8,52.8,30.11,North,9,0.0,0.0,100,0.00,,,0.01,Weather View 32 v70,2013-05-09 14:02:00,
2013-05-09 10:07:00,53.2,53.2,30.11,NNE,22,0.0,0.0,100,0.00,,,0.01,Weather View 32 v70,2013-05-09 14:07:00,
2013-05-09 10:12:00,53.7,53.7,30.11,North,11,0.0,0.0,100,0.00,,,0.01,Weather View 32 v70,2013-05-09 14:12:00,
2013-05-09 10:17:00,54.4,54.4,30.11,North,355,0.0,0.0,100,0.00,,,0.01,Weather View 32 v70,2013-05-09 14:17:00,
2013-05-09 10:22:00,55.0,55.0,30.11,East,82,0.0,0.0,100,0.00,,,0.01,Weather View 32 v70,2013-05-09 14:22:00,
2013-05-09 10:27:00,55.4,55.4,30.11,NNE,13,0.0,0.0,100,0.00,,,0.01,Weather View 32 v70,2013-05-09 14:27:00,
2013-05-09 10:32:00,55.8,55.8,30.11,NNE,25,0.0,0.0,100,0.00,,,0.01,Weather View 32 v70,2013-05-09 14:32:00,
2013-05-09 10:37:00,56.2,56.2,30.11,NE,42,0.0,3.0,100,0.00,,,0.01,Weather View 32 v70,2013-05-09 14:37:00,
2013-05-09 10:42:00,56.5,56.5,30.11,NE,49,0.0,3.0,100,0.00,,,0.01,Weather View 32 v70,2013-05-09 14:42:00,
2013-05-09 10:47:00,57.1,57.1,30.11,NNE,22,0.0,3.0,100,0.00,,,0.01,Weather View 32 v70,2013-05-09 14:47:00,
2013-05-09 10:52:00,57.8,57.8,30.11,WSW,242,0.0,3.0,100,0.00,,,0.01,Weather View 32 v70,2013-05-09 14:52:00,
2013-05-09 10:57:00,58.6,58.6,30.11,SW,219,0.0,3.0,100,0.00,,,0.01,Weather View 32 v70,2013-05-09 14:57:00,
2013-05-09 11:02:00,59.1,59.1,30.11,WNW,298,0.0,3.0,100,0.00,,,0.01,Weather View 32 v70,2013-05-09 15:02:00,
2013-05-09 11:07:00,60.1,59.2,30.11,North,356,0.0,5.0,97,0.00,,,0.01,Weather View 32 v70,2013-05-09 15:07:00,
2013-05-09 11:12:00,61.5,59.5,30.11,ESE,103,0.0,6.0,93,0.00,,,0.01,Weather View 32 v70,2013-05-09 15:12:00,
2013-05-09 11:17:00,62.6,60.2,30.11,NNE,15,5.0,6.0,92,0.00,,,0.01,Weather View 32 v70,2013-05-09 15:17:00,
2013-05-09 11:22:00,63.1,58.8,30.11,ENE,70,0.0,11.0,86,0.00,,,0.01,Weather View 32 v70,2013-05-09 15:22:00,
2013-05-09 11:27:00,63.8,59.2,30.11,NNE,14,3.0,11.0,85,0.00,,,0.01,Weather View 32 v70,2013-05-09 15:27:00,
2013-05-09 11:32:00,64.8,59.8,30.12,East,79,0.0,11.0,84,0.00,,,0.01,Weather View 32 v70,2013-05-09 15:32:00,
2013-05-09 11:37:00,65.8,59.4,30.12,North,352,2.0,11.0,80,0.00,,,0.01,Weather View 32 v70,2013-05-09 15:37:00,
2013-05-09 11:42:00,66.1,59.4,30.12,SSW,200,2.0,11.0,79,0.00,,,0.01,Weather View 32 v70,2013-05-09 15:42:00,
2013-05-09 11:47:00,66.5,58.7,30.12,NE,56,0.0,11.0,76,0.00,,,0.01,Weather View 32 v70,2013-05-09 15:47:00,
2013-05-09 11:52:00,66.7,57.0,30.13,NNW,345,5.0,11.0,71,0.00,,,0.01,Weather View 32 v70,2013-05-09 15:52:00,
2013-05-09 11:57:00,67.1,56.2,30.13,ENE,70,5.0,11.0,68,0.00,,,0.01,Weather View 32 v70,2013-05-09 15:57:00,
2013-05-09 12:02:00,67.9,56.5,30.12,West,259,0.0,11.0,67,0.00,,,0.01,Weather View 32 v70,2013-05-09 16:02:00,
2013-05-09 12:07:00,68.4,56.6,30.13,ESE,119,3.0,11.0,66,0.00,,,0.01,Weather View 32 v70,2013-05-09 16:07:00,
2013-05-09 12:12:00,68.8,55.7,30.12,West,259,2.0,11.0,63,0.00,,,0.01,Weather View 32 v70,2013-05-09 16:12:00,
2013-05-09 12:17:00,69.3,55.7,30.13,NW,321,0.0,11.0,62,0.00,,,0.01,Weather View 32 v70,2013-05-09 16:17:00,
2013-05-09 12:22:00,69.7,55.6,30.12,East,93,1.0,8.0,61,0.00,,,0.01,Weather View 32 v70,2013-05-09 16:22:00,
2013-05-09 12:27:00,69.7,54.7,30.12,NNW,348,1.0,8.0,59,0.00,,,0.01,Weather View 32 v70,2013-05-09 16:27:00,
2013-05-09 12:32:00,70.1,55.1,30.12,SW,225,1.0,8.0,59,0.00,,,0.01,Weather View 32 v70,2013-05-09 16:32:00,
2013-05-09 12:37:00,70.9,55.8,30.12,NNE,24,2.0,8.0,59,0.00,,,0.01,Weather View 32 v70,2013-05-09 16:37:00,
2013-05-09 12:43:00,71.3,54.7,30.12,WNW,286,1.0,8.0,56,0.00,,,0.01,Weather View 32 v70,2013-05-09 16:43:00,
2013-05-09 12:48:00,71.7,54.6,30.11,WSW,252,2.0,8.0,55,0.00,,,0.01,Weather View 32 v70,2013-05-09 16:48:00,
2013-05-09 12:53:00,72.0,54.9,30.11,East,85,0.0,8.0,55,0.00,,,0.01,Weather View 32 v70,2013-05-09 16:53:00,
2013-05-09 12:58:00,71.3,54.7,30.11,NW,306,3.0,8.0,56,0.00,,,0.01,Weather View 32 v70,2013-05-09 16:58:00,
2013-05-09 13:03:00,71.2,54.2,30.11,North,349,2.0,8.0,55,-0.01,,,0.01,Weather View 32 v70,2013-05-09 17:03:00,
2013-05-09 13:08:00,71.6,54.0,30.11,West,278,0.0,8.0,54,0.00,,,0.01,Weather View 32 v70,2013-05-09 17:08:00,
2013-05-09 13:13:00,72.1,55.0,30.11,NW,309,0.0,8.0,55,0.00,,,0.01,Weather View 32 v70,2013-05-09 17:13:00,
2013-05-09 13:18:00,72.5,53.8,30.11,NW,319,0.0,8.0,52,0.00,,,0.01,Weather View 32 v70,2013-05-09 17:18:00,
2013-05-09 13:23:00,73.2,53.9,30.11,WNW,290,0.0,8.0,51,0.00,,,0.01,Weather View 32 v70,2013-05-09 17:23:00,
2013-05-09 13:28:00,74.0,54.7,30.11,East,89,3.0,8.0,51,0.00,,,0.01,Weather View 32 v70,2013-05-09 17:28:00,
2013-05-09 13:33:00,74.3,53.8,30.10,East,88,2.0,8.0,49,0.00,,,0.01,Weather View 32 v70,2013-05-09 17:33:00,
2013-05-09 13:38:00,74.0,53.0,30.11,NW,315,2.0,8.0,48,0.00,,,0.01,Weather View 32 v70,2013-05-09 17:38:00,
2013-05-09 13:43:00,73.8,54.5,30.11,North,9,3.0,6.0,51,0.00,,,0.01,Weather View 32 v70,2013-05-09 17:43:00,
2013-05-09 13:48:00,73.5,52.5,30.11,WSW,258,2.0,10.0,48,0.00,,,0.01,Weather View 32 v70,2013-05-09 17:48:00,
2013-05-09 13:53:00,73.3,52.9,30.11,ENE,65,3.0,10.0,49,0.00,,,0.01,Weather View 32 v70,2013-05-09 17:53:00,
2013-05-09 13:58:00,74.3,53.8,30.11,East,97,3.0,10.0,49,0.00,,,0.01,Weather View 32 v70,2013-05-09 17:58:00,
2013-05-09 14:03:00,75.4,54.3,30.11,NE,46,0.0,10.0,48,0.00,,,0.01,Weather View 32 v70,2013-05-09 18:03:00,
2013-05-09 14:08:00,75.3,53.6,30.10,North,355,4.0,10.0,47,0.00,,,0.01,Weather View 32 v70,2013-05-09 18:08:00,
2013-05-09 14:13:00,74.4,52.8,30.11,North,353,5.0,10.0,47,0.00,,,0.01,Weather View 32 v70,2013-05-09 18:13:00,
2013-05-09 14:18:00,74.0,53.0,30.11,South,172,0.0,10.0,48,0.00,,,0.01,Weather View 32 v70,2013-05-09 18:18:00,
2013-05-09 14:23:00,73.5,54.2,30.11,NNE,29,1.0,10.0,51,0.00,,,0.01,Weather View 32 v70,2013-05-09 18:23:00,
2013-05-09 14:28:00,72.4,54.3,30.11,NE,48,0.0,10.0,53,0.00,,,0.01,Weather View 32 v70,2013-05-09 18:28:00,
2013-05-09 14:33:00,71.6,51.9,30.12,NNW,330,0.0,10.0,50,0.00,,,0.01,Weather View 32 v70,2013-05-09 18:33:00,
2013-05-09 14:38:00,70.7,52.7,30.11,ESE,119,1.0,10.0,53,0.00,,,0.01,Weather View 32 v70,2013-05-09 18:38:00,
2013-05-09 14:43:00,70.0,53.0,30.11,North,354,3.0,10.0,55,0.00,,,0.01,Weather View 32 v70,2013-05-09 18:43:00,
2013-05-09 14:48:00,69.7,53.7,30.11,ESE,106,0.0,10.0,57,0.00,,,0.01,Weather View 32 v70,2013-05-09 18:48:00,
2013-05-09 14:53:00,70.1,53.1,30.11,SE,135,0.0,10.0,55,0.00,,,0.01,Weather View 32 v70,2013-05-09 18:53:00,
2013-05-09 14:58:00,71.2,53.1,30.11,NNW,332,0.0,10.0,53,0.00,,,0.01,Weather View 32 v70,2013-05-09 18:58:00,
2013-05-09 15:03:00,71.9,52.7,30.10,NE,43,1.0,10.0,51,0.00,,,0.01,Weather View 32 v70,2013-05-09 19:03:00,
2013-05-09 15:08:00,71.7,53.6,30.10,NNE,15,2.0,10.0,53,0.00,,,0.01,Weather View 32 v70,2013-05-09 19:08:00,
2013-05-09 15:13:00,71.6,52.5,30.10,NNE,17,2.0,10.0,51,0.00,,,0.01,Weather View 32 v70,2013-05-09 19:13:00,
2013-05-09 15:18:00,72.3,53.1,30.10,NE,36,0.0,5.0,51,0.00,,,0.01,Weather View 32 v70,2013-05-09 19:18:00,
2013-05-09 15:24:00,73.2,54.5,30.09,North,9,0.0,6.0,52,0.00,,,0.01,Weather View 32 v70,2013-05-09 19:24:00,
2013-05-09 15:29:00,73.4,53.6,30.09,NE,43,0.0,6.0,50,0.00,,,0.01,Weather View 32 v70,2013-05-09 19:29:00,
2013-05-09 15:34:00,73.2,52.8,30.09,North,8,2.0,6.0,49,0.00,,,0.01,Weather View 32 v70,2013-05-09 19:34:00,
2013-05-09 15:39:00,73.2,53.4,30.09,SSE,154,0.0,6.0,50,0.00,,,0.01,Weather View 32 v70,2013-05-09 19:39:00,
2013-05-09 15:44:00,73.1,53.3,30.08,ENE,58,0.0,6.0,50,0.00,,,0.01,Weather View 32 v70,2013-05-09 19:44:00,
2013-05-09 15:49:00,72.7,52.9,30.08,NE,39,2.0,6.0,50,0.00,,,0.01,Weather View 32 v70,2013-05-09 19:49:00,
2013-05-09 15:54:00,72.7,54.0,30.08,WSW,240,0.0,6.0,52,0.00,,,0.01,Weather View 32 v70,2013-05-09 19:54:00,
2013-05-09 15:59:00,73.1,53.8,30.08,SSW,201,1.0,6.0,51,0.00,,,0.01,Weather View 32 v70,2013-05-09 19:59:00,
2013-05-09 16:04:00,73.2,53.4,30.08,NW,320,2.0,6.0,50,0.00,,,0.01,Weather View 32 v70,2013-05-09 20:04:00,
2013-05-09 16:09:00,73.2,53.4,30.08,NNE,27,0.0,6.0,50,0.00,,,0.01,Weather View 32 v70,2013-05-09 20:09:00,
2013-05-09 16:14:00,73.5,54.2,30.08,NE,39,0.0,6.0,51,0.00,,,0.01,Weather View 32 v70,2013-05-09 20:14:00,
2013-05-09 16:19:00,73.8,53.4,30.07,NNE,23,2.0,6.0,49,0.00,,,0.01,Weather View 32 v70,2013-05-09 20:19:00,
2013-05-09 16:24:00,74.4,53.9,30.07,ENE,74,0.0,5.0,49,0.00,,,0.01,Weather View 32 v70,2013-05-09 20:24:00,
2013-05-09 16:29:00,74.8,55.9,30.07,ENE,57,2.0,5.0,52,0.00,,,0.01,Weather View 32 v70,2013-05-09 20:29:00,
2013-05-09 16:34:00,75.3,54.8,30.08,East,80,0.0,5.0,49,0.00,,,0.01,Weather View 32 v70,2013-05-09 20:34:00,
2013-05-09 16:39:00,75.8,54.1,30.08,East,99,0.0,5.0,47,0.00,,,0.01,Weather View 32 v70,2013-05-09 20:39:00,
2013-05-09 16:44:00,76.0,54.2,30.07,East,84,0.0,5.0,47,0.00,,,0.01,Weather View 32 v70,2013-05-09 20:44:00,
2013-05-09 16:49:00,75.7,54.6,30.07,ENE,61,1.0,5.0,48,0.00,,,0.01,Weather View 32 v70,2013-05-09 20:49:00,
2013-05-09 16:54:00,75.6,54.5,30.07,North,8,0.0,5.0,48,0.00,,,0.01,Weather View 32 v70,2013-05-09 20:54:00,
2013-05-09 16:59:00,75.5,53.8,30.07,NNW,344,0.0,5.0,47,0.00,,,0.01,Weather View 32 v70,2013-05-09 20:59:00,
2013-05-09 17:04:00,75.2,53.5,30.07,NNW,337,2.0,6.0,47,0.00,,,0.01,Weather View 32 v70,2013-05-09 21:04:00,
2013-05-09 17:09:00,75.1,52.8,30.07,ENE,72,0.0,6.0,46,0.00,,,0.01,Weather View 32 v70,2013-05-09 21:09:00,
2013-05-09 17:14:00,75.2,52.9,30.07,West,271,1.0,6.0,46,0.00,,,0.01,Weather View 32 v70,2013-05-09 21:14:00,
2013-05-09 17:19:00,75.1,52.8,30.07,NNE,19,0.0,6.0,46,0.00,,,0.01,Weather View 32 v70,2013-05-09 21:19:00,
2013-05-09 17:24:00,74.5,52.9,30.07,NNE,27,2.0,6.0,47,0.00,,,0.01,Weather View 32 v70,2013-05-09 21:24:00,
2013-05-09 17:29:00,74.2,53.2,30.07,NNE,26,0.0,6.0,48,0.00,,,0.01,Weather View 32 v70,2013-05-09 21:29:00,
2013-05-09 17:34:00,73.8,53.9,30.07,NNE,23,0.0,6.0,50,0.00,,,0.01,Weather View 32 v70,2013-05-09 21:34:00,
2013-05-09 17:39:00,73.7,53.8,30.07,NNE,23,0.0,6.0,50,0.00,,,0.01,Weather View 32 v70,2013-05-09 21:39:00,
2013-05-09 17:44:00,73.6,53.2,30.07,NNE,23,0.0,6.0,49,0.00,,,0.01,Weather View 32 v70,2013-05-09 21:44:00,
2013-05-09 17:49:00,73.6,56.4,30.07,NNE,23,0.0,6.0,55,0.00,,,0.01,Weather View 32 v70,2013-05-09 21:49:00,
2013-05-09 17:54:00,73.2,55.5,30.07,NNE,23,0.0,6.0,54,0.00,,,0.01,Weather View 32 v70,2013-05-09 21:54:00,
2013-05-09 17:59:00,72.4,56.3,30.07,NNE,23,0.0,6.0,57,0.00,,,0.01,Weather View 32 v70,2013-05-09 21:59:00,
2013-05-09 18:04:00,71.7,55.6,30.07,NNE,23,0.0,5.0,57,0.00,,,0.01,Weather View 32 v70,2013-05-09 22:04:00,
2013-05-09 18:10:00,71.2,53.7,30.08,SE,138,0.0,5.0,54,0.00,,,0.01,Weather View 32 v70,2013-05-09 22:10:00,
2013-05-09 18:15:00,70.8,56.2,30.07,NW,305,0.0,4.0,60,0.00,,,0.01,Weather View 32 v70,2013-05-09 22:15:00,
2013-05-09 18:20:00,70.7,54.7,30.07,NNW,339,0.0,4.0,57,0.00,,,0.01,Weather View 32 v70,2013-05-09 22:20:00,
2013-05-09 18:25:00,70.6,54.1,30.07,West,260,0.0,4.0,56,0.00,,,0.01,Weather View 32 v70,2013-05-09 22:25:00,
2013-05-09 18:30:00,70.8,56.2,30.07,WNW,293,0.0,4.0,60,0.00,,,0.01,Weather View 32 v70,2013-05-09 22:30:00,
2013-05-09 18:35:00,70.7,55.2,30.06,WNW,292,0.0,4.0,58,0.00,,,0.01,Weather View 32 v70,2013-05-09 22:35:00,
2013-05-09 18:40:00,70.6,56.0,30.07,WNW,291,0.0,4.0,60,0.00,,,0.01,Weather View 32 v70,2013-05-09 22:40:00,
2013-05-09 18:45:00,70.6,54.1,30.07,South,181,0.0,4.0,56,0.00,,,0.01,Weather View 32 v70,2013-05-09 22:45:00,
2013-05-09 18:50:00,70.9,54.4,30.07,South,182,0.0,4.0,56,0.00,,,0.01,Weather View 32 v70,2013-05-09 22:50:00,
2013-05-09 18:55:00,71.2,55.1,30.07,South,182,0.0,4.0,57,0.00,,,0.01,Weather View 32 v70,2013-05-09 22:55:00,
2013-05-09 19:00:00,71.4,53.8,30.07,SE,131,0.0,4.0,54,0.00,,,0.01,Weather View 32 v70,2013-05-09 23:00:00,
2013-05-09 19:05:00,71.5,54.9,30.07,NW,306,0.0,4.0,56,0.00,,,0.01,Weather View 32 v70,2013-05-09 23:05:00,
2013-05-09 19:10:00,71.5,53.4,30.07,SW,214,0.0,4.0,53,0.00,,,0.01,Weather View 32 v70,2013-05-09 23:10:00,
2013-05-09 19:15:00,71.3,53.7,30.07,WSW,256,0.0,0.0,54,0.00,,,0.01,Weather View 32 v70,2013-05-09 23:15:00,
2013-05-09 19:20:00,71.0,54.5,30.07,SSE,158,0.0,0.0,56,0.00,,,0.01,Weather View 32 v70,2013-05-09 23:20:00,
2013-05-09 19:25:00,70.3,54.8,30.07,South,169,0.0,0.0,58,0.00,,,0.01,Weather View 32 v70,2013-05-09 23:25:00,
2013-05-09 19:30:00,69.8,54.3,30.07,SSW,196,2.0,0.0,58,0.00,,,0.01,Weather View 32 v70,2013-05-09 23:30:00,
2013-05-09 19:35:00,69.5,54.5,30.07,SSE,162,0.0,2.0,59,0.00,,,0.01,Weather View 32 v70,2013-05-09 23:35:00,
2013-05-09 19:40:00,68.8,55.7,30.07,South,171,0.0,2.0,63,0.00,,,0.01,Weather View 32 v70,2013-05-09 23:40:00,
2013-05-09 19:45:00,68.2,55.1,30.07,South,171,0.0,2.0,63,0.00,,,0.01,Weather View 32 v70,2013-05-09 23:45:00,
2013-05-09 19:50:00,67.5,55.7,30.07,South,178,0.0,2.0,66,0.00,,,0.01,Weather View 32 v70,2013-05-09 23:50:00,
2013-05-09 19:55:00,67.1,54.9,30.07,South,180,0.0,2.0,65,0.00,,,0.01,Weather View 32 v70,2013-05-09 23:55:00,
2013-05-09 20:00:00,66.4,54.7,30.07,South,180,0.0,2.0,66,0.00,,,0.01,Weather View 32 v70,2013-05-10 00:00:00,
2013-05-09 20:05:00,65.7,54.4,30.08,South,180,0.0,2.0,67,0.00,,,0.01,Weather View 32 v70,2013-05-10 00:05:00,
2013-05-09 20:10:00,65.0,54.2,30.07,South,180,0.0,2.0,68,0.00,,,0.01,Weather View 32 v70,2013-05-10 00:10:00,
2013-05-09 20:15:00,64.6,54.2,30.08,South,171,0.0,2.0,69,0.00,,,0.01,Weather View 32 v70,2013-05-10 00:15:00,
2013-05-09 20:20:00,64.3,54.3,30.08,South,171,0.0,2.0,70,0.00,,,0.01,Weather View 32 v70,2013-05-10 00:20:00,
2013-05-09 20:25:00,63.8,55.0,30.08,South,171,0.0,2.0,73,0.00,,,0.01,Weather View 32 v70,2013-05-10 00:25:00,
2013-05-09 20:30:00,63.3,54.5,30.08,South,171,0.0,2.0,73,0.00,,,0.01,Weather View 32 v70,2013-05-10 00:30:00,
2013-05-09 20:35:00,63.0,54.6,30.09,South,171,0.0,0.0,74,0.00,,,0.01,Weather View 32 v70,2013-05-10 00:35:00,
2013-05-09 20:40:00,62.5,53.7,30.09,South,171,0.0,0.0,73,0.00,,,0.01,Weather View 32 v70,2013-05-10 00:40:00,
2013-05-09 20:45:00,62.2,53.8,30.09,South,171,0.0,0.0,74,0.00,,,0.01,Weather View 32 v70,2013-05-10 00:45:00,
2013-05-09 20:50:00,62.0,54.0,30.10,South,171,0.0,0.0,75,0.00,,,0.01,Weather View 32 v70,2013-05-10 00:50:00,
2013-05-09 20:56:00,61.6,53.6,30.10,South,171,0.0,0.0,75,0.00,,,0.01,Weather View 32 v70,2013-05-10 00:56:00,
2013-05-09 21:01:00,61.3,54.0,30.10,South,171,0.0,0.0,77,0.00,,,0.01,Weather View 32 v70,2013-05-10 01:01:00,
2013-05-09 21:06:00,61.0,53.4,30.10,South,171,0.0,0.0,76,0.00,,,0.01,Weather View 32 v70,2013-05-10 01:06:00,
2013-05-09 21:11:00,60.8,53.2,30.11,South,171,0.0,0.0,76,0.00,,,0.01,Weather View 32 v70,2013-05-10 01:11:00,
2013-05-09 21:16:00,60.5,53.6,30.11,South,171,0.0,0.0,78,0.00,,,0.01,Weather View 32 v70,2013-05-10 01:16:00,
2013-05-09 21:21:00,60.2,53.6,30.11,South,171,0.0,0.0,79,0.00,,,0.01,Weather View 32 v70,2013-05-10 01:21:00,
2013-05-09 21:26:00,59.9,53.0,30.11,South,171,0.0,0.0,78,0.00,,,0.01,Weather View 32 v70,2013-05-10 01:26:00,
2013-05-09 21:31:00,59.8,53.3,30.12,South,171,0.0,0.0,79,0.00,,,0.01,Weather View 32 v70,2013-05-10 01:31:00,
2013-05-09 21:36:00,59.6,52.7,30.12,South,171,0.0,0.0,78,0.00,,,0.01,Weather View 32 v70,2013-05-10 01:36:00,
2013-05-09 21:41:00,59.4,52.9,30.12,South,171,0.0,0.0,79,0.00,,,0.01,Weather View 32 v70,2013-05-10 01:41:00,
2013-05-09 21:46:00,59.2,52.3,30.12,South,171,0.0,0.0,78,0.00,,,0.01,Weather View 32 v70,2013-05-10 01:46:00,
2013-05-09 21:51:00,59.0,52.5,30.13,South,171,0.0,0.0,79,0.00,,,0.01,Weather View 32 v70,2013-05-10 01:51:00,
2013-05-09 21:56:00,59.0,53.5,30.12,South,171,0.0,0.0,82,0.00,,,0.01,Weather View 32 v70,2013-05-10 01:56:00,
2013-05-09 22:01:00,58.8,53.0,30.12,South,169,0.0,0.0,81,0.00,,,0.01,Weather View 32 v70,2013-05-10 02:01:00,
2013-05-09 22:06:00,58.8,53.0,30.12,South,169,0.0,0.0,81,0.00,,,0.01,Weather View 32 v70,2013-05-10 02:06:00,
2013-05-09 22:11:00,58.6,53.1,30.12,South,169,0.0,0.0,82,0.00,,,0.01,Weather View 32 v70,2013-05-10 02:11:00,
2013-05-09 22:16:00,58.5,53.3,30.12,South,169,0.0,0.0,83,0.00,,,0.01,Weather View 32 v70,2013-05-10 02:16:00,
2013-05-09 22:21:00,58.3,53.1,30.12,South,169,0.0,0.0,83,0.00,,,0.01,Weather View 32 v70,2013-05-10 02:21:00,
2013-05-09 22:26:00,58.1,53.3,30.12,South,169,0.0,0.0,84,0.00,,,0.01,Weather View 32 v70,2013-05-10 02:26:00,
2013-05-09 22:31:00,58.0,52.9,30.12,South,169,0.0,0.0,83,0.00,,,0.01,Weather View 32 v70,2013-05-10 02:31:00,
2013-05-09 22:36:00,57.9,53.1,30.13,South,169,0.0,0.0,84,0.00,,,0.01,Weather View 32 v70,2013-05-10 02:36:00,
2013-05-09 22:41:00,57.8,53.0,30.13,South,169,0.0,0.0,84,0.00,,,0.01,Weather View 32 v70,2013-05-10 02:41:00,
2013-05-09 22:46:00,57.8,53.0,30.12,South,169,0.0,0.0,84,0.00,,,0.01,Weather View 32 v70,2013-05-10 02:46:00,
2013-05-09 22:51:00,57.8,53.0,30.12,South,169,0.0,0.0,84,0.00,,,0.01,Weather View 32 v70,2013-05-10 02:51:00,
2013-05-09 22:56:00,57.7,52.9,30.13,South,169,0.0,0.0,84,0.00,,,0.01,Weather View 32 v70,2013-05-10 02:56:00,
2013-05-09 23:01:00,57.7,53.2,30.13,South,169,0.0,0.0,85,0.00,,,0.01,Weather View 32 v70,2013-05-10 03:01:00,
2013-05-09 23:06:00,57.4,52.9,30.13,South,169,0.0,0.0,85,0.00,,,0.01,Weather View 32 v70,2013-05-10 03:06:00,
2013-05-09 23:11:00,57.2,52.7,30.13,South,187,0.0,0.0,85,0.00,,,0.01,Weather View 32 v70,2013-05-10 03:11:00,
2013-05-09 23:16:00,57.2,53.4,30.13,South,187,0.0,0.0,87,0.00,,,0.01,Weather View 32 v70,2013-05-10 03:16:00,
2013-05-09 23:21:00,57.0,53.2,30.13,South,187,0.0,0.0,87,0.00,,,0.01,Weather View 32 v70,2013-05-10 03:21:00,
2013-05-09 23:27:00,56.8,53.0,30.13,South,187,0.0,0.0,87,0.00,,,0.01,Weather View 32 v70,2013-05-10 03:27:00,
2013-05-09 23:32:00,56.6,52.8,30.13,South,187,0.0,0.0,87,0.00,,,0.01,Weather View 32 v70,2013-05-10 03:32:00,
2013-05-09 23:37:00,56.4,52.6,30.13,South,187,0.0,0.0,87,0.00,,,0.01,Weather View 32 v70,2013-05-10 03:37:00,
2013-05-09 23:42:00,56.2,52.7,30.13,South,187,0.0,0.0,88,0.00,,,0.01,Weather View 32 v70,2013-05-10 03:42:00,
2013-05-09 23:47:00,56.0,52.8,30.14,South,187,0.0,0.0,89,0.00,,,0.01,Weather View 32 v70,2013-05-10 03:47:00,
2013-05-09 23:52:00,56.0,53.1,30.14,South,187,0.0,0.0,90,0.00,,,0.01,Weather View 32 v70,2013-05-10 03:52:00,
2013-05-09 23:57:00,56.0,52.5,30.14,South,188,0.0,0.0,88,0.00,,,0.01,Weather View 32 v70,2013-05-10 03:57:00,